Location: Arrodets-la-Barthe
(43.0306°N, 0.2829°E)
Time: 01:51:06
(UTC+00:00)

Cosmos 2344 - Pass Details

Date: 30 May 2022
Orbit: 1228 x 3015 km, 63.3° (Epoch: 04 July)

Event Time Altitude Azimuth Distance (km) Brightness Sun altitude
Rises 00:29:25 0° 304° (NW) 4,190 6.6 -24.8°
Reaches altitude 10° 00:33:08 10° 323° (NW) 3,313 6.3 -24.7°
Maximum altitude 00:38:32 19° 7° (N) 2,888 6.3 -24.5°
Drops below altitude 10° 00:44:44 10° 50° (NE) 3,886 6.8 -24.3°
Sets 00:49:39 0° 68° (ENE) 5,195 7.3 -24.1°
